Location: Guferjoch
(46.7462°N, 8.4506°E)
Time: 00:33:40
(UTC+00:00)

SL-8 R/B - Pass Details

Date: 14 July 2020
Orbit: 656 x 668 km, 48.4° (Epoch: 03 August)

Event Time Altitude Azimuth Distance (km) Brightness Sun altitude
Exits shadow 00:08:41 36° 132° (SE) 1,053 4.4 -21.1°
Drops below altitude 10° 00:12:37 10° 80° (E) 2,083 6.5 -21.0°
Sets 00:15:06 0° 72° (ENE) 2,996 7.5 -20.9°
